Location: Unspecified
(49.2170°N, 0.0000°E)
Time: 10:02:16
(UTC+00:00)

A-11 Canister half - Pass Details

Date: 23 June 2019
Orbit: 1527 x 1682 km, 47.3° (Epoch: 15 October)

Event Time Altitude Azimuth Distance (km) Brightness Sun altitude
Rises 02:25:20 0° 188° (S) 4,767 - -10.7°
Exits shadow 02:27:28 - 182° (S) 4,221 10.8 -10.5°
Reaches altitude 10° 02:29:27 10° 174° (S) 3,760 10.6 -10.3°
Maximum altitude 02:35:52 21° 130° (SE) 2,971 10.5 -9.7°
Drops below altitude 10° 02:42:11 10° 87° (E) 3,711 11.6 -9.1°
Sets 02:46:10 0° 72° (ENE) 4,687 12.6 -8.7°
